QPF
0.08 0.13 0.17 0.12 0.09 0.07 0.07 0.10 0.10 0.06 0.06 0.07 0.08 0.08 0.07 0.06 0.05 0.05 0.05 0.04 0.04 0.05 0.06 0.07 0.08 0.07 0.06 0.07 0.07 0.06 0.06 0.06 0.05 0.06 0.07 0.08 0.07 0.06 0.07 0.06 0.04 0.03 0.04
0.05 0.11 0.14 0.08 0.05 0.05 0.06 0.07 0.04 0.03 0.03 0.04 0.05 0.05 0.05 0.06 0.06 0.04 0.05 0.05 0.05 0.06 0.06 0.06 0.05 0.04 0.04 0.05 0.05 0.04 0.05 0.05 0.06 0.08 0.08 0.07 0.06 0.07 0.05 0.03 0.03 0.04 0.05
0.03 0.07 0.08 0.06 0.04 0.04 0.03 0.04 0.04 0.03 0.02 0.03 0.03 0.03 0.04 0.06 0.06 0.05 0.06 0.06 0.05 0.05 0.04 0.04 0.03 0.03 0.03 0.03 0.04 0.04 0.04 0.06 0.06 0.07 0.05 0.02 0.04 0.07 0.04 0.03 0.06 0.05 0.05
0.01 0.04 0.04 0.04 0.03 0.03 0.02 0.02 0.02 0.02 0.02 0.04 0.03 0.03 0.04 0.05 0.06 0.06 0.06 0.06 0.05 0.04 0.03 0.03 0.03 0.03 0.03 0.02 0.03 0.03 0.05 0.06 0.04 0.03 0.01 0.01 0.02 0.06 0.06 0.04 0.04 0.04 0.05
0.01 0.02 0.03 0.02 0.01 0.02 0.02 0.01 0.01 0.02 0.03 0.04 0.03 0.03 0.03 0.03 0.04 0.05 0.05 0.05 0.04 0.03 0.02 0.02 0.02 0.03 0.03 0.03 0.04 0.05 0.05 0.05 0.04 0.02 0.01 0.01 0.02 0.06 0.06 0.03 0.03 0.03 0.04
0.01 0.02 0.02 0.01 0.01 0.01 0.01 0.01 0.01 0.01 0.02 0.03 0.03 0.05 0.04 0.04 0.04 0.03 0.04 0.05 0.05 0.04 0.04 0.03 0.03 0.02 0.03 0.04 0.04 0.05 0.03 0.03 0.02 0.01 0.01 0.01 0.03 0.07 0.06 0.04 0.04 0.03 0.04
0.00 0.02 0.01 0.01 0.01 0.01 0.01 0.01 0.01 0.02 0.02 0.02 0.02 0.04 0.04 0.04 0.03 0.03 0.04 0.05 0.04 0.03 0.04 0.03 0.02 0.02 0.04 0.06 0.06 0.05 0.04 0.03 0.01 0.00 0.00 0.01 0.03 0.06 0.06 0.04 0.04 0.04 0.03
0.00 0.01 0.01 0.01 0.01 0.00 0.01 0.01 0.01 0.01 0.02 0.02 0.01 0.02 0.03 0.03 0.03 0.03 0.03 0.03 0.03 0.01 0.02 0.02 0.03 0.03 0.04 0.05 0.06 0.06 0.08 0.03 0.00 0.00 0.00 0.01 0.03 0.05 0.06 0.06 0.05 0.04 0.02
0.00 0.01 0.01 0.01 0.01 0.01 0.01 0.01 0.01 0.01 0.02 0.02 0.01 0.02 0.03 0.03 0.04 0.04 0.03 0.03 0.02 0.01 0.01 0.02 0.03 0.04 0.04 0.05 0.05 0.06 0.08 0.05 0.00 0.00 0.00 0.01 0.03 0.05 0.05 0.05 0.06 0.03 0.02
0.01 0.01 0.01 0.01 0.00 0.00 0.01 0.01 0.01 0.01 0.02 0.02 0.01 0.02 0.03 0.03 0.04 0.04 0.05 0.05 0.03 0.02 0.02 0.02 0.03 0.03 0.04 0.05 0.05 0.07 0.09 0.05 0.01 0.00 0.00 0.01 0.03 0.04 0.03 0.03 0.03 0.01 0.01
0.00 0.00 0.00 0.00 0.00 0.00 0.00 0.01 0.01 0.02 0.03 0.03 0.03 0.03 0.03 0.02 0.02 0.04 0.05 0.04 0.02 0.02 0.03 0.03 0.04 0.04 0.04 0.04 0.07 0.09 0.05 0.01 0.00 0.00 0.00 0.02 0.03 0.03 0.03 0.02 0.01 0.01 0.01
0.00 0.00 0.00 0.00 0.00 0.00 0.00 0.00 0.00 0.01 0.02 0.03 0.05 0.06 0.07 0.03 0.03 0.03 0.04 0.03 0.02 0.02 0.02 0.04 0.05 0.05 0.02 0.02 0.06 0.04 0.02 0.01 0.01 0.01 0.01 0.03 0.03 0.02 0.02 0.02 0.01 0.01 0.01
0.00 0.00 0.00 0.00 0.00 0.00 0.00 0.00 0.00 0.00 0.00 0.04 0.09 0.08 0.06 0.02 0.01 0.02 0.02 0.02 0.01 0.01 0.01 0.01 0.01 0.01 0.00 0.01 0.02 0.02 0.02 0.01 0.01 0.01 0.02 0.03 0.03 0.02 0.02 0.02 0.02 0.01 0.01
0.00 0.00 0.00 0.00 0.00 0.00 0.00 0.00 0.00 0.00 0.00 0.02 0.07 0.05 0.02 0.00 0.01 0.00 0.01 0.00 0.00 0.00 0.00 0.00 0.00 0.00 0.00 0.01 0.02 0.02 0.02 0.01 0.01 0.01 0.01 0.03 0.03 0.02 0.02 0.02 0.02 0.01 0.00
0.00 0.00 0.00 0.00 0.00 0.00 0.00 0.00 0.00 0.00 0.00 0.00 0.01 0.01 0.00 0.00 0.00 0.00 0.00 0.00 0.00 0.00 0.00 0.00 0.00 0.01 0.02 0.02 0.01 0.01 0.01 0.01 0.01 0.01 0.01 0.02 0.02 0.02 0.02 0.02 0.02 0.01 0.00
0.01 0.01 0.01 0.01 0.01 0.01 0.01 0.00 0.00 0.00 0.00 0.00 0.00 0.00 0.00 0.00 0.00 0.00 0.00 0.00 0.00 0.00 0.00 0.00 0.01 0.02 0.03 0.03 0.02 0.02 0.02 0.01 0.01 0.01 0.01 0.02 0.03 0.02 0.02 0.03 0.02 0.01 0.01
0.01 0.02 0.02 0.02 0.02 0.01 0.01 0.00 0.00 0.00 0.00 0.00 0.00 0.00 0.00 0.00 0.00 0.00 0.01 0.01 0.01 0.00 0.00 0.01 0.01 0.03 0.03 0.03 0.03 0.03 0.03 0.02 0.02 0.01 0.01 0.01 0.02 0.03 0.03 0.03 0.04 0.04 0.03
0.01 0.02 0.03 0.03 0.02 0.02 0.02 0.02 0.01 0.01 0.01 0.00 0.00 0.00 0.00 0.00 0.00 0.00 0.01 0.01 0.01 0.01 0.01 0.01 0.02 0.02 0.02 0.02 0.03 0.03 0.02 0.03 0.02 0.01 0.00 0.00 0.01 0.01 0.03 0.04 0.04 0.04 0.04
0.01 0.02 0.02 0.03 0.04 0.03 0.03 0.02 0.02 0.02 0.03 0.03 0.02 0.01 0.00 0.00 0.00 0.00 0.01 0.02 0.03 0.02 0.03 0.03 0.03 0.04 0.03 0.02 0.03 0.03 0.03 0.04 0.03 0.02 0.01 0.01 0.01 0.01 0.01 0.03 0.05 0.05 0.05
0.05 0.06 0.05 0.06 0.08 0.07 0.07 0.04 0.02 0.02 0.03 0.03 0.02 0.02 0.02 0.01 0.01 0.02 0.02 0.02 0.03 0.04 0.04 0.04 0.04 0.05 0.04 0.03 0.04 0.03 0.04 0.04 0.03 0.03 0.02 0.01 0.01 0.02 0.01 0.02 0.03 0.04 0.06
0.08 0.11 0.13 0.11 0.10 0.08 0.06 0.04 0.03 0.03 0.05 0.04 0.03 0.03 0.04 0.02 0.03 0.03 0.03 0.03 0.03 0.04 0.05 0.05 0.04 0.04 0.05 0.05 0.06 0.05 0.03 0.02 0.03 0.02 0.02 0.02 0.02 0.03 0.02 0.02 0.02 0.02 0.02
0.06 0.09 0.11 0.09 0.09 0.08 0.07 0.07 0.08 0.08 0.06 0.04 0.04 0.05 0.05 0.05 0.07 0.05 0.03 0.04 0.03 0.03 0.04 0.03 0.03 0.04 0.05 0.06 0.07 0.08 0.06 0.04 0.02 0.01 0.01 0.01 0.02 0.02 0.03 0.03 0.03 0.02 0.02
0.03 0.04 0.04 0.06 0.08 0.11 0.13 0.10 0.07 0.06 0.06 0.05 0.03 0.04 0.06 0.08 0.07 0.05 0.04 0.04 0.04 0.03 0.03 0.02 0.03 0.05 0.04 0.05 0.05 0.05 0.02 0.01 0.02 0.01 0.00 0.00 0.01 0.03 0.04 0.03 0.03 0.04 0.03
0.06 0.07 0.06 0.07 0.09 0.12 0.16 0.12 0.07 0.05 0.04 0.04 0.04 0.05 0.07 0.08 0.06 0.06 0.06 0.06 0.06 0.05 0.03 0.02 0.03 0.03 0.03 0.04 0.04 0.03 0.02 0.01 0.01 0.01 0.00 0.01 0.01 0.01 0.02 0.02 0.02 0.02 0.03
0.08 0.08 0.10 0.10 0.09 0.11 0.13 0.10 0.07 0.05 0.04 0.04 0.05 0.07 0.09 0.09 0.08 0.08 0.08 0.08 0.08 0.07 0.06 0.05 0.04 0.04 0.04 0.04 0.03 0.04 0.04 0.03 0.02 0.01 0.00 0.00 0.00 0.01 0.01 0.01 0.01 0.01 0.02
0.07 0.08 0.08 0.08 0.08 0.10 0.11 0.09 0.07 0.05 0.04 0.04 0.03 0.04 0.07 0.08 0.08 0.09 0.11 0.11 0.11 0.09 0.08 0.08 0.08 0.07 0.07 0.05 0.04 0.03 0.03 0.03 0.02 0.02 0.01 0.00 0.00 0.00 0.00 0.00 0.00 0.00 0.01
MSLP
1013.04 1012.72 1012.58 1012.61 1012.79 1013.03 1013.26 1013.42 1013.48 1013.45 1013.34 1013.23 1013.15 1013.15 1013.22 1013.37 1013.55 1013.74 1013.89 1014.00 1014.06 1014.11 1014.16 1014.24 1014.38 1014.58 1014.81 1015.07 1015.32 1015.55 1015.73 1015.88 1015.99 1016.09 1016.20 1016.32 1016.47 1016.66 1016.87 1017.12 1017.37 1017.64 1017.90
1012.86 1012.64 1012.58 1012.68 1012.90 1013.17 1013.41 1013.58 1013.64 1013.61 1013.52 1013.44 1013.41 1013.45 1013.57 1013.75 1013.95 1014.13 1014.26 1014.33 1014.36 1014.37 1014.41 1014.49 1014.65 1014.87 1015.14 1015.42 1015.69 1015.93 1016.12 1016.27 1016.39 1016.50 1016.62 1016.76 1016.93 1017.13 1017.34 1017.57 1017.80 1018.03 1018.26
1012.69 1012.55 1012.57 1012.72 1012.98 1013.28 1013.54 1013.72 1013.80 1013.80 1013.76 1013.73 1013.75 1013.84 1013.99 1014.18 1014.37 1014.53 1014.62 1014.64 1014.63 1014.62 1014.65 1014.74 1014.91 1015.16 1015.46 1015.77 1016.06 1016.31 1016.51 1016.67 1016.80 1016.93 1017.07 1017.24 1017.42 1017.63 1017.83 1018.04 1018.24 1018.43 1018.63
1012.60 1012.52 1012.59 1012.79 1013.08 1013.40 1013.69 1013.90 1014.01 1014.06 1014.07 1014.09 1014.15 1014.28 1014.46 1014.65 1014.83 1014.95 1014.99 1014.98 1014.93 1014.90 1014.92 1015.03 1015.22 1015.50 1015.82 1016.15 1016.46 1016.71 1016.92 1017.09 1017.24 1017.38 1017.55 1017.73 1017.93 1018.13 1018.33 1018.51 1018.68 1018.84 1019.01
1012.63 1012.60 1012.70 1012.93 1013.24 1013.58 1013.89 1014.12 1014.27 1014.36 1014.42 1014.49 1014.60 1014.76 1014.96 1015.15 1015.30 1015.39 1015.40 1015.35 1015.29 1015.25 1015.28 1015.40 1015.62 1015.91 1016.25 1016.58 1016.88 1017.14 1017.35 1017.52 1017.67 1017.84 1018.02 1018.21 1018.42 1018.61 1018.79 1018.95 1019.09 1019.23 1019.39
1012.81 1012.80 1012.92 1013.17 1013.49 1013.84 1014.15 1014.40 1014.58 1014.70 1014.79 1014.91 1015.06 1015.25 1015.45 1015.64 1015.78 1015.85 1015.84 1015.79 1015.72 1015.69 1015.74 1015.88 1016.11 1016.41 1016.74 1017.06 1017.35 1017.58 1017.77 1017.94 1018.10 1018.27 1018.46 1018.66 1018.87 1019.06 1019.22 1019.35 1019.47 1019.59 1019.74
1013.11 1013.13 1013.26 1013.51 1013.82 1014.16 1014.46 1014.71 1014.89 1015.03 1015.15 1015.30 1015.48 1015.69 1015.91 1016.11 1016.25 1016.33 1016.32 1016.28 1016.23 1016.22 1016.29 1016.44 1016.67 1016.97 1017.28 1017.57 1017.82 1018.03 1018.20 1018.34 1018.50 1018.67 1018.86 1019.07 1019.27 1019.45 1019.59 1019.71 1019.81 1019.91 1020.05
1013.49 1013.53 1013.67 1013.91 1014.21 1014.52 1014.80 1015.02 1015.19 1015.33 1015.46 1015.63 1015.84 1016.08 1016.32 1016.54 1016.70 1016.79 1016.81 1016.79 1016.77 1016.79 1016.87 1017.04 1017.27 1017.54 1017.82 1018.07 1018.28 1018.45 1018.59 1018.72 1018.86 1019.03 1019.22 1019.43 1019.62 1019.79 1019.92 1020.02 1020.10 1020.19 1020.33
1013.89 1013.95 1014.11 1014.35 1014.62 1014.90 1015.13 1015.32 1015.46 1015.58 1015.72 1015.90 1016.13 1016.39 1016.67 1016.92 1017.11 1017.23 1017.28 1017.29 1017.30 1017.34 1017.44 1017.60 1017.82 1018.07 1018.31 1018.52 1018.69 1018.83 1018.94 1019.05 1019.18 1019.34 1019.54 1019.74 1019.93 1020.09 1020.21 1020.29 1020.37 1020.45 1020.58
1014.25 1014.35 1014.53 1014.77 1015.02 1015.26 1015.45 1015.59 1015.69 1015.80 1015.93 1016.12 1016.37 1016.66 1016.97 1017.25 1017.47 1017.62 1017.70 1017.74 1017.77 1017.82 1017.93 1018.09 1018.29 1018.51 1018.72 1018.90 1019.04 1019.15 1019.24 1019.34 1019.47 1019.63 1019.82 1020.02 1020.21 1020.37 1020.48 1020.56 1020.63 1020.71 1020.83
1014.52 1014.68 1014.90 1015.15 1015.40 1015.60 1015.75 1015.84 1015.92 1016.00 1016.13 1016.33 1016.60 1016.91 1017.24 1017.54 1017.79 1017.96 1018.06 1018.11 1018.15 1018.21 1018.31 1018.46 1018.65 1018.85 1019.04 1019.20 1019.33 1019.42 1019.51 1019.61 1019.73 1019.90 1020.08 1020.28 1020.47 1020.63 1020.74 1020.82 1020.89 1020.97 1021.09
1014.70 1014.93 1015.20 1015.48 1015.72 1015.90 1016.02 1016.09 1016.14 1016.21 1016.34 1016.55 1016.83 1017.16 1017.51 1017.82 1018.08 1018.25 1018.36 1018.41 1018.45 1018.50 1018.59 1018.73 1018.90 1019.09 1019.28 1019.44 1019.56 1019.67 1019.76 1019.86 1019.99 1020.15 1020.33 1020.53 1020.72 1020.87 1020.99 1021.08 1021.16 1021.24 1021.36
1014.78 1015.09 1015.42 1015.73 1015.98 1016.16 1016.27 1016.33 1016.37 1016.44 1016.58 1016.80 1017.09 1017.43 1017.78 1018.10 1018.35 1018.52 1018.62 1018.66 1018.68 1018.72 1018.80 1018.92 1019.09 1019.28 1019.47 1019.64 1019.78 1019.89 1020.00 1020.11 1020.24 1020.39 1020.57 1020.76 1020.94 1021.09 1021.22 1021.32 1021.41 1021.50 1021.62
1014.78 1015.17 1015.55 1015.90 1016.18 1016.37 1016.48 1016.55 1016.60 1016.69 1016.84 1017.07 1017.37 1017.72 1018.06 1018.37 1018.61 1018.77 1018.85 1018.87 1018.88 1018.91 1018.97 1019.09 1019.25 1019.45 1019.65 1019.83 1019.99 1020.13 1020.24 1020.36 1020.48 1020.63 1020.78 1020.95 1021.12 1021.27 1021.41 1021.52 1021.62 1021.73 1021.85
1014.70 1015.16 1015.59 1015.97 1016.28 1016.50 1016.64 1016.74 1016.82 1016.93 1017.11 1017.35 1017.65 1017.99 1018.32 1018.61 1018.84 1018.98 1019.05 1019.07 1019.07 1019.09 1019.16 1019.27 1019.43 1019.63 1019.84 1020.04 1020.22 1020.37 1020.50 1020.61 1020.72 1020.84 1020.97 1021.11 1021.26 1021.40 1021.53 1021.65 1021.77 1021.88 1022.01
1014.57 1015.06 1015.53 1015.94 1016.27 1016.53 1016.71 1016.86 1016.98 1017.14 1017.34 1017.59 1017.89 1018.21 1018.52 1018.80 1019.00 1019.14 1019.21 1019.24 1019.26 1019.29 1019.36 1019.48 1019.65 1019.85 1020.07 1020.28 1020.46 1020.62 1020.74 1020.84 1020.93 1021.01 1021.11 1021.22 1021.33 1021.46 1021.58 1021.71 1021.83 1021.95 1022.08
1014.38 1014.88 1015.36 1015.78 1016.15 1016.45 1016.69 1016.89 1017.07 1017.27 1017.49 1017.75 1018.04 1018.34 1018.63 1018.88 1019.08 1019.22 1019.31 1019.37 1019.42 1019.48 1019.57 1019.71 1019.88 1020.09 1020.30 1020.51 1020.69 1020.84 1020.96 1021.04 1021.10 1021.16 1021.21 1021.28 1021.36 1021.45 1021.56 1021.68 1021.80 1021.93 1022.06
1014.14 1014.62 1015.08 1015.52 1015.91 1016.26 1016.56 1016.82 1017.07 1017.31 1017.56 1017.81 1018.08 1018.35 1018.61 1018.84 1019.04 1019.21 1019.33 1019.43 1019.53 1019.64 1019.77 1019.92 1020.11 1020.31 1020.52 1020.72 1020.89 1021.03 1021.13 1021.20 1021.24 1021.26 1021.28 1021.31 1021.34 1021.40 1021.48 1021.58 1021.70 1021.82 1021.95
1013.83 1014.28 1014.73 1015.17 1015.58 1015.97 1016.33 1016.67 1016.98 1017.26 1017.52 1017.77 1018.02 1018.25 1018.47 1018.69 1018.89 1019.07 1019.24 1019.41 1019.57 1019.73 1019.91 1020.09 1020.29 1020.49 1020.69 1020.87 1021.03 1021.16 1021.26 1021.31 1021.34 1021.34 1021.32 1021.31 1021.31 1021.32 1021.37 1021.44 1021.53 1021.64 1021.76
1013.48 1013.90 1014.32 1014.75 1015.19 1015.62 1016.05 1016.45 1016.82 1017.14 1017.42 1017.65 1017.86 1018.05 1018.23 1018.42 1018.62 1018.83 1019.06 1019.29 1019.52 1019.74 1019.96 1020.18 1020.38 1020.58 1020.77 1020.94 1021.10 1021.22 1021.32 1021.38 1021.40 1021.38 1021.35 1021.30 1021.25 1021.23 1021.23 1021.26 1021.32 1021.41 1021.51
1013.09 1013.47 1013.87 1014.30 1014.77 1015.25 1015.74 1016.21 1016.63 1016.98 1017.26 1017.48 1017.65 1017.79 1017.93 1018.09 1018.29 1018.52 1018.79 1019.08 1019.37 1019.65 1019.92 1020.16 1020.37 1020.57 1020.75 1020.92 1021.07 1021.21 1021.31 1021.38 1021.41 1021.40 1021.35 1021.27 1021.19 1021.11 1021.06 1021.04 1021.06 1021.11 1021.20
1012.68 1013.03 1013.42 1013.86 1014.35 1014.88 1015.43 1015.95 1016.42 1016.81 1017.09 1017.29 1017.42 1017.51 1017.61 1017.74 1017.92 1018.17 1018.47 1018.80 1019.14 1019.47 1019.76 1020.02 1020.25 1020.44 1020.62 1020.79 1020.95 1021.10 1021.23 1021.33 1021.38 1021.38 1021.32 1021.22 1021.09 1020.96 1020.85 1020.77 1020.74 1020.75 1020.82
1012.23 1012.59 1012.98 1013.44 1013.96 1014.53 1015.12 1015.70 1016.21 1016.62 1016.91 1017.09 1017.19 1017.25 1017.30 1017.40 1017.57 1017.82 1018.13 1018.48 1018.85 1019.20 1019.51 1019.78 1020.01 1020.20 1020.38 1020.55 1020.73 1020.91 1021.07 1021.20 1021.27 1021.28 1021.22 1021.10 1020.93 1020.75 1020.57 1020.43 1020.34 1020.31 1020.34
1011.77 1012.14 1012.55 1013.03 1013.57 1014.18 1014.82 1015.43 1015.98 1016.41 1016.72 1016.89 1016.97 1017.00 1017.03 1017.10 1017.25 1017.48 1017.78 1018.14 1018.51 1018.86 1019.17 1019.43 1019.65 1019.84 1020.02 1020.20 1020.40 1020.60 1020.80 1020.96 1021.06 1021.09 1021.03 1020.89 1020.68 1020.44 1020.20 1019.99 1019.84 1019.76 1019.75
1011.29 1011.70 1012.13 1012.62 1013.19 1013.82 1014.48 1015.12 1015.69 1016.15 1016.47 1016.66 1016.73 1016.75 1016.77 1016.82 1016.94 1017.15 1017.44 1017.77 1018.12 1018.45 1018.74 1018.98 1019.18 1019.36 1019.54 1019.73 1019.94 1020.17 1020.39 1020.59 1020.72 1020.76 1020.70 1020.54 1020.31 1020.02 1019.73 1019.46 1019.25 1019.11 1019.06
1010.80 1011.24 1011.70 1012.21 1012.78 1013.41 1014.08 1014.74 1015.32 1015.80 1016.15 1016.35 1016.45 1016.48 1016.49 1016.53 1016.64 1016.83 1017.08 1017.38 1017.69 1017.98 1018.24 1018.44 1018.62 1018.77 1018.93 1019.12 1019.34 1019.59 1019.83 1020.05 1020.20 1020.26 1020.21 1020.05 1019.79 1019.48 1019.15 1018.83 1018.57 1018.39 1018.30
Thickness
5781 5785 5785 5785 5784 5784 5783 5783 5782 5782 5781 5780 5780 5779 5778 5777 5776 5775 5774 5774 5773 5772 5770 5768 5767 5766 5764 5762 5760 5758 5756 5755 5753 5751 5749 5747 5745 5743 5741 5740 5738 5737 5735
5785 5785 5785 5784 5783 5782 5782 5781 5781 5780 5780 5779 5778 5777 5776 5775 5774 5773 5772 5771 5770 5769 5768 5766 5765 5763 5762 5760 5758 5756 5755 5753 5751 5749 5746 5744 5743 5741 5740 5738 5736 5734 5733
5786 5785 5784 5783 5782 5781 5780 5780 5779 5779 5778 5777 5777 5776 5775 5774 5772 5771 5770 5769 5768 5767 5765 5764 5763 5761 5759 5758 5756 5754 5752 5751 5748 5746 5744 5742 5741 5739 5738 5736 5734 5732 5731
5786 5785 5783 5782 5781 5780 5779 5778 5778 5777 5777 5776 5775 5774 5773 5772 5771 5769 5768 5767 5766 5765 5763 5762 5760 5759 5757 5755 5753 5752 5750 5748 5746 5744 5742 5741 5739 5738 5736 5734 5733 5731 5729
5786 5784 5782 5781 5780 5779 5778 5777 5776 5775 5775 5774 5773 5772 5771 5770 5769 5767 5766 5765 5764 5762 5761 5759 5758 5757 5755 5753 5751 5750 5748 5746 5744 5742 5741 5739 5738 5736 5734 5733 5731 5729 5727
5785 5783 5781 5780 5778 5777 5776 5775 5774 5773 5772 5772 5771 5770 5769 5768 5767 5765 5764 5763 5762 5760 5759 5757 5756 5754 5753 5751 5749 5748 5746 5744 5742 5740 5739 5738 5736 5734 5733 5731 5729 5728 5726
5783 5781 5780 5778 5777 5776 5774 5773 5772 5771 5771 5770 5769 5768 5767 5766 5765 5763 5762 5761 5759 5758 5756 5755 5754 5752 5751 5749 5748 5746 5744 5742 5741 5739 5738 5736 5735 5733 5732 5730 5728 5726 5725
5782 5780 5778 5776 5775 5774 5773 5772 5771 5770 5769 5768 5767 5766 5765 5764 5763 5761 5760 5759 5757 5756 5754 5753 5752 5751 5749 5748 5746 5745 5743 5741 5739 5738 5736 5735 5733 5732 5730 5728 5726 5725 5723
5780 5778 5776 5774 5773 5772 5771 5770 5769 5768 5767 5766 5766 5765 5764 5762 5761 5759 5758 5757 5755 5754 5752 5751 5750 5749 5748 5746 5745 5743 5742 5740 5738 5736 5735 5733 5732 5731 5729 5727 5725 5724 5722
5778 5776 5774 5773 5772 5771 5770 5769 5767 5766 5765 5764 5763 5762 5761 5760 5759 5757 5756 5755 5753 5752 5750 5749 5748 5747 5746 5745 5743 5742 5740 5738 5737 5735 5734 5732 5731 5729 5728 5726 5724 5723 5721
5775 5773 5772 5771 5770 5769 5768 5767 5766 5764 5763 5762 5761 5760 5759 5757 5757 5755 5754 5753 5752 5750 5749 5747 5746 5746 5744 5743 5742 5741 5739 5737 5735 5734 5733 5731 5730 5728 5726 5725 5723 5722 5720
5772 5771 5771 5770 5769 5767 5767 5765 5764 5763 5761 5760 5759 5757 5756 5755 5754 5753 5753 5751 5750 5749 5748 5746 5745 5744 5743 5742 5741 5739 5738 5736 5734 5733 5732 5730 5729 5727 5725 5724 5722 5721 5719
5774 5772 5770 5769 5768 5766 5765 5764 5762 5761 5760 5758 5757 5755 5754 5753 5752 5751 5751 5750 5749 5747 5746 5745 5743 5742 5742 5741 5739 5738 5736 5735 5733 5732 5731 5729 5728 5727 5725 5723 5721 5720 5718
5774 5772 5771 5769 5767 5765 5764 5762 5761 5760 5758 5756 5755 5753 5752 5751 5750 5749 5749 5748 5747 5745 5744 5743 5742 5741 5740 5740 5739 5737 5736 5734 5732 5731 5730 5729 5727 5726 5724 5722 5721 5719 5718
5775 5773 5771 5770 5767 5765 5763 5762 5760 5758 5757 5755 5754 5752 5751 5750 5749 5748 5747 5746 5745 5744 5743 5742 5741 5740 5739 5738 5737 5737 5735 5734 5732 5731 5730 5728 5727 5725 5724 5722 5720 5719 5717
5777 5774 5772 5770 5768 5765 5763 5761 5759 5757 5756 5754 5753 5751 5750 5749 5747 5746 5745 5744 5743 5743 5742 5741 5740 5739 5738 5737 5737 5736 5735 5733 5732 5730 5729 5728 5726 5725 5723 5722 5721 5719 5717
5780 5777 5773 5770 5768 5765 5763 5761 5759 5757 5755 5754 5752 5751 5749 5748 5747 5745 5744 5743 5742 5741 5741 5740 5739 5738 5737 5736 5735 5735 5734 5733 5732 5730 5729 5727 5726 5725 5723 5722 5721 5719 5718
5781 5777 5774 5772 5768 5765 5763 5761 5758 5756 5755 5754 5752 5751 5750 5748 5747 5745 5743 5742 5741 5740 5739 5738 5737 5736 5735 5734 5734 5734 5733 5732 5731 5730 5728 5727 5726 5725 5724 5723 5721 5720 5719
5783 5778 5774 5772 5769 5766 5763 5760 5758 5756 5754 5753 5752 5752 5750 5749 5747 5745 5743 5742 5740 5739 5738 5738 5736 5734 5733 5732 5732 5732 5732 5731 5730 5730 5729 5727 5726 5725 5724 5723 5722 5721 5719
5784 5779 5775 5772 5769 5766 5763 5759 5757 5755 5753 5753 5752 5752 5751 5749 5747 5744 5742 5741 5739 5738 5736 5736 5734 5733 5732 5731 5731 5730 5730 5730 5730 5729 5729 5728 5727 5726 5725 5724 5723 5722 5721
5783 5779 5775 5771 5769 5766 5762 5758 5755 5753 5752 5752 5752 5751 5750 5749 5747 5744 5742 5741 5739 5737 5736 5735 5733 5731 5730 5729 5727 5725 5727 5729 5729 5729 5729 5728 5727 5727 5726 5725 5724 5723 5722
5785 5781 5777 5773 5771 5768 5765 5762 5759 5756 5754 5753 5752 5751 5750 5748 5747 5744 5742 5741 5739 5737 5736 5734 5733 5730 5729 5728 5725 5721 5719 5722 5727 5731 5730 5729 5729 5728 5727 5726 5725 5724 5723
5787 5784 5781 5776 5772 5769 5767 5763 5758 5754 5751 5750 5750 5751 5751 5749 5747 5745 5743 5741 5740 5738 5736 5735 5733 5730 5727 5727 5727 5723 5717 5715 5721 5727 5729 5730 5730 5729 5729 5728 5727 5726 5724
5790 5787 5783 5778 5774 5770 5767 5762 5757 5753 5749 5750 5751 5752 5751 5749 5747 5745 5743 5742 5740 5738 5736 5735 5734 5732 5730 5726 5726 5726 5725 5723 5719 5720 5726 5729 5730 5730 5730 5729 5729 5728 5727
5791 5787 5783 5778 5774 5770 5767 5764 5760 5756 5754 5752 5752 5751 5750 5749 5748 5746 5744 5742 5740 5738 5737 5735 5734 5733 5732 5729 5727 5725 5723 5722 5722 5719 5719 5724 5727 5731 5732 5731 5730 5729 5729
5791 5787 5782 5777 5773 5770 5767 5765 5761 5757 5754 5752 5751 5749 5749 5749 5748 5747 5744 5742 5740 5738 5736 5735 5735 5733 5732 5731 5729 5727 5725 5723 5721 5720 5719 5720 5723 5728 5731 5732 5732 5731 5731